(29) Amphitrite
ephemeris date magn radius delta ra dec elong phase
Opposition28 May 20269.72.739 AU1.734 AU16h16m-30°32'170.9°3.4°
Today13 Jul 202610.52.730 AU1.969 AU15h44m-28°18'129.4°16.7°
(29) Amphitrite - 2026-07-13
astro.vanbuitenen.nl


 
-1 year
-1 month
-1 day
Now
+1 day
+1 month
+1 year

The interactive orbit chart above shows the body's path through the solar system and its position at the given date. Green and blue lines are shown perpendicular to the ecliptic plane: Green if the path is above the ecliptic plane, blue if it is below. (Left-click and drag to rotate the view; Right-click and drag to move the view; Use scroll wheel to zoom in our out.)

The orbital elements of Amphitrite are:

            e (Eccentricity)                : 0.0731635
            a (Semimajor axis)              : 2.5545700
            i (Inclination)                 : 6.07707
            Ω (Longitude of ascending node) : 356.25006
            ω (Argument of perihelion)      : 61.93054
            M (Mean anomaly)                : 193.37398
            Epoch                           : 2026 Jun 09

            L (Longitude of perihelion)     : 58.04633
            B (Latitude of perihelion)      : 5.36004
            P (Orbital period in years)     : 4.08            
        

The light curve chart below shows the estimated development of the minor planet's magnitude.


The all-sky chart below shows the path of the minor planet over the same period as the light curve. The current position is marked yellow.





The following chart shows the path of the minor planet in the next few days. The field of view is optimized for (~10x50) binoculars and finderscopes.




Ephemerides:
Date       Time       RA (2000)    DEC (2000)    delta   radius  elong  phase   PA    magn
2026-07-13 00:00 UT   15 44 03.2   -28 18 58     1.969    2.730  129.4   16.7    96   10.5 
2026-07-13 09:08 UT   15 44 00.4   -28 17 57     1.973    2.730  129.0   16.8    96   10.5 
2026-07-14 00:00 UT   15 43 56.4   -28 16 19     1.979    2.730  128.4   17.0    96   10.5 
2026-07-15 00:00 UT   15 43 51.3   -28 13 44     1.989    2.730  127.5   17.2    97   10.6 
2026-07-16 00:00 UT   15 43 48.0   -28 11 12     1.999    2.729  126.5   17.4    97   10.6 
2026-07-17 00:00 UT   15 43 46.4   -28 08 45     2.010    2.729  125.6   17.6    97   10.6 
2026-07-18 00:00 UT   15 43 46.5   -28 06 22     2.020    2.729  124.6   17.8    97   10.6 
2026-07-19 00:00 UT   15 43 48.4   -28 04 04     2.031    2.728  123.7   18.1    98   10.6 
2026-07-20 00:00 UT   15 43 51.9   -28 01 50     2.041    2.728  122.7   18.3    98   10.6 
2026-07-21 00:00 UT   15 43 57.1   -27 59 41     2.052    2.728  121.8   18.5    98   10.7 
2026-07-22 00:00 UT   15 44 04.0   -27 57 36     2.063    2.728  120.9   18.6    98   10.7 
2026-07-23 00:00 UT   15 44 12.6   -27 55 36     2.074    2.727  120.0   18.8    98   10.7 
2026-07-24 00:00 UT   15 44 22.8   -27 53 41     2.085    2.727  119.1   19.0    99   10.7 
2026-07-25 00:00 UT   15 44 34.6   -27 51 50     2.096    2.727  118.2   19.2    99   10.7 
2026-07-26 00:00 UT   15 44 48.1   -27 50 04     2.107    2.727  117.3   19.3    99   10.7 
2026-07-27 00:00 UT   15 45 03.1   -27 48 22     2.119    2.726  116.4   19.5    99   10.8 
2026-07-28 00:00 UT   15 45 19.8   -27 46 45     2.130    2.726  115.5   19.6    99   10.8 
2026-07-29 00:00 UT   15 45 38.0   -27 45 13     2.142    2.726  114.6   19.8    99   10.8 
2026-07-30 00:00 UT   15 45 57.7   -27 43 45     2.154    2.725  113.7   19.9    99   10.8 
2026-07-31 00:00 UT   15 46 19.0   -27 42 22     2.165    2.725  112.8   20.1   100   10.8 
2026-08-01 00:00 UT   15 46 41.8   -27 41 04     2.177    2.725  112.0   20.2   100   10.8 
2026-08-02 00:00 UT   15 47 06.1   -27 39 50     2.189    2.724  111.1   20.3   100   10.9 
2026-08-03 00:00 UT   15 47 31.8   -27 38 41     2.201    2.724  110.3   20.5   100   10.9 
2026-08-04 00:00 UT   15 47 59.1   -27 37 36     2.213    2.724  109.4   20.6   100   10.9 
2026-08-05 00:00 UT   15 48 27.8   -27 36 35     2.225    2.723  108.6   20.7   100   10.9 
2026-08-06 00:00 UT   15 48 57.9   -27 35 39     2.237    2.723  107.7   20.8   100   10.9 
2026-08-07 00:00 UT   15 49 29.5   -27 34 48     2.249    2.723  106.9   20.9   100   10.9 
2026-08-08 00:00 UT   15 50 02.5   -27 34 01     2.262    2.723  106.1   21.0   100   10.9 
2026-08-09 00:00 UT   15 50 36.8   -27 33 18     2.274    2.722  105.2   21.1   100   11.0 
2026-08-10 00:00 UT   15 51 12.6   -27 32 39     2.286    2.722  104.4   21.1   100   11.0 
2026-08-11 00:00 UT   15 51 49.7   -27 32 04     2.299    2.722  103.6   21.2   101   11.0 
2026-08-12 00:00 UT   15 52 28.2   -27 31 34     2.311    2.721  102.8   21.3   101   11.0 


    Terminology:
            
    delta:  distance between minor planet and earth in AU
    radius: distance between minor planet and sun in AU
    magn:   magnitude (brightness) estimate    
    ra:     right ascension in hours (24h = 360deg)
    dec:    declination in degrees
    elong:  elongation in degrees (angle sun-earth-minor planet)    
    phase:  phase angle in degrees (angle sun-minor planet-earth)        
    AU:     Astronomical Unit (mean distance between earth and sun: 149597870.7 km
    

Orbital elements provided by the MPC (Minor Planet Center).
Calculations by a modified version of AAPlus, a C# implementation of the AA+ project by PJ Naughter from the algorithms presented in the book "Astronomical Algorithms" by Jean Meeus.
NGC2000 dso catalog and star labels from VizieR as provided by the Strasbourg astronomical Data Center.
Tycho2 catalog from the ESO archive.